Regional Weather Roundup
Issued by NWS Newport/Morehead, NC

Current Version | Previous Version | Graphics & Text | Print | Product List | Glossary Off
Versions: 1 2 3 4 5 6 7 8 9 10 11 12 13 14 15 16 17 18 19 20 21 22 23 24 25 26 27 28 29 30 31 32 33 34 35 36 37 38 39 40 41 42 43 44 45 46 47 48 49 50

000
ASUS42 KMHX 040526
RWRMHX
WEATHER ROUNDUP FOR EASTERN NORTH CAROLINA
NATIONAL WEATHER SERVICE NEWPORT/MOREHEAD CITY NC
100 AM EDT FRI SEP 04 2015

NOTE: "FAIR" INDICATES FEW OR NO CLOUDS BELOW 12,000 FEET
WITH NO SIGNIFICANT WEATHER AND/OR OBSTRUCTIONS TO VISIBILITY

NCZ015>017-031-032-045>047-102-103-040600-
NORTH COAST

CITY           SKY/WX    TMP DP  RH WIND       PRES   REMARKS
EDENTON        PTCLDY    73  70  92 CALM      29.90S
ELIZABETH CITY PTCLDY    71  70  96 CALM      29.90S
KITTY HAWK     PTCLDY    76  72  87 CALM      29.89S
MANTEO         PTCLDY    75  73  92 CALM      29.90F

$$

NCZ045>047-081-094-103-104-040600-
CENTRAL COAST

CITY           SKY/WX    TMP DP  RH WIND       PRES   REMARKS
FRISCO         PTCLDY    76  73  91 NW3       29.90F
SWANQUARTER      N/A     77 N/A N/A W3        29.88R

$$

NCZ095-097-098-100-101-040600-
SOUTHERN COAST

CITY           SKY/WX    TMP DP  RH WIND       PRES   REMARKS
BEAUFORT       CLEAR     77  73  87 W3        29.90S
CEDAR ISLAND     N/A     79 N/A N/A W1        29.94S
JACKSONVILLE   CLEAR     73  71  93 W3        29.90S
PINEY ISLAND   CLEAR    N/A N/A N/A W5        29.90S
WILMINGTON     PTCLDY    73  70  90 CALM      29.91S


$$

NCZ011>013-027>030-043-044-078>080-089-090>093-098-040600-
COASTAL PLAIN

CITY           SKY/WX    TMP DP  RH WIND       PRES   REMARKS
AHOSKIE        PTCLDY    71  70  97 CALM      29.91S FOG
CLINTON        CLEAR     72  72 100 CALM      29.93S
ELIZABETHTOWN  CLEAR     73  71  92 CALM      29.92S
GOLDSBORO      CLEAR     74  71  92 CALM      29.90S
GREENVILLE     PTCLDY    72  72 100 CALM      29.93S FOG
HAVELOCK       PTCLDY    74  71  91 CALM      29.92S
KENANSVILLE      N/A     70  69  97 CALM      29.93S FOG
KINSTON        PTCLDY    71  70  97 CALM      29.92S FOG
NEW BERN       PTCLDY    74  71  91 CALM      29.92S
RICHLANDS      CLEAR     72  66  83 CALM      29.91F
ROCKY MOUNT    CLEAR     72  71  97 CALM      29.91S FOG
WASHINGTON     CLEAR     71  71  97 CALM      29.91R FOG
WHITEVILLE     CLEAR     71  69  92 CALM      29.91S

$$

AMZ130-135-150-152-154-156-158-170-250-252-270-ANZ085-086-088-633-658-670-040600-
MARINE OBSERVATIONS

STATION/POSITION TIME  TEMP    WIND        PRES    WAVE   SWELL
                       AIR SEA DIR/SP/G            HT/PER HT/PER
                 (UTC) (F)     (DEG/KT/KT) (MB)    (FT/S) (FT/S)
CHESAPEAKE LIGHT 0500   80     230/  8/  9 1012.8
64 E VA BEACH    0450   79 79  240/  6/  6 1011.7    1/13   2/13
DUCK             0500   79 80  240/  6/  6 1011.5
2 E DUCK         0411      80                N/A     1/13
OREGON INLET     0500   80 83  260/  4/  6 1012.3
13E OREGON INLT  0500      81                N/A     1/13
HATTERAS CG      0500   81 83  290/  5/  6 1012.3
DIAMOND BUOY     0450   81 85  300/  6/  8 1012.7    1/11   2/11
CAPE LOOKOUT     0500   81     320/  4/  4 1012.4
BEAUFORT LAB     0500   79 82  340/  2/  3 1012.0
30 SE NEW RVR IN 0408   81 81  320/  8/ 10 1013.0
30 SE NEW RVR IN 0425      81                N/A     2/ 4
27 SE WRIGHTSVLE 0500   77 82   30/  2/  4   N/A
5 SE WRIGHTSVLE  0408   79 82  350/  8/ 10 1012.6
225 S CAPE HAT   0450   82 84  300/  2/  4 1013.0    2/12   2/12
41 SE CHARLESTON 0450   81 84  190/  4/  4 1013.1    2/ 4   2/ 4

$$


USA.gov is the U.S. government's official web portal to all federal, state and local government web resources and services.